Back to catalog

JCSAT 10

AliveCommunicationsGEO
NORAD 29272·PAYLOAD·🇯🇵 Japan

Launched Aug 11, 2006 from Guiana Space Centre

Loading…

TLE

FreshSource: Space-Track

Epoch: Sep 14, 2026, 14:24 UTC

1 29272U 06033A   26257.60049446 -.00000353  00000-0  00000-0 0  9991
2 29272   0.0425 277.3040 0002278 258.0421 162.4079  1.00271392 48634

Track JCSAT 10 in real time with AllMySat

Download on the App Store